TimeCDT,TemperatureF,Dew PointF,Humidity,Sea Level PressureIn,VisibilityMPH,Wind Direction,Wind SpeedMPH,Gust SpeedMPH,PrecipitationIn,Events,Conditions,WindDirDegrees,DateUTC
12:15 AM,46.4,37.4,71,30.10,10.0,NNE,11.5,17.3,N/A,,Clear,20,2013-05-09 05:15:00
12:35 AM,46.4,35.6,66,30.10,10.0,NNE,12.7,-,N/A,,Clear,20,2013-05-09 05:35:00
12:55 AM,46.4,35.6,66,30.11,10.0,NNE,11.5,17.3,N/A,,Clear,20,2013-05-09 05:55:00
1:15 AM,44.6,33.8,66,30.11,10.0,NNE,8.1,-,N/A,,Clear,30,2013-05-09 06:15:00
1:35 AM,44.6,33.8,66,30.11,10.0,NNE,10.4,17.3,N/A,,Clear,30,2013-05-09 06:35:00
1:55 AM,44.6,33.8,66,30.11,10.0,NNE,8.1,-,N/A,,Clear,30,2013-05-09 06:55:00
2:15 AM,42.8,33.8,70,30.10,10.0,NNE,10.4,-,N/A,,Clear,20,2013-05-09 07:15:00
2:35 AM,42.8,32.0,66,30.11,10.0,North,11.5,-,N/A,,Clear,10,2013-05-09 07:35:00
2:55 AM,42.8,32.0,66,30.11,10.0,North,10.4,-,N/A,,Clear,10,2013-05-09 07:55:00
3:15 AM,42.8,33.8,70,30.11,10.0,NNE,6.9,-,N/A,,Clear,20,2013-05-09 08:15:00
3:35 AM,41.0,32.0,70,30.12,10.0,NNE,8.1,-,N/A,,Clear,20,2013-05-09 08:35:00
3:56 AM,41.0,32.0,70,30.11,10.0,NNE,9.2,-,N/A,,Clear,20,2013-05-09 08:56:00
4:15 AM,39.2,30.2,70,30.12,10.0,North,11.5,-,N/A,,Clear,10,2013-05-09 09:15:00
4:35 AM,39.2,32.0,75,30.13,10.0,North,9.2,-,N/A,,Clear,10,2013-05-09 09:35:00
4:56 AM,37.4,30.2,75,30.13,10.0,NNE,8.1,-,N/A,,Clear,20,2013-05-09 09:56:00
5:15 AM,37.4,30.2,75,30.14,10.0,North,8.1,-,N/A,,Clear,10,2013-05-09 10:15:00
5:35 AM,37.4,30.2,75,30.14,10.0,NNE,5.8,-,N/A,,Clear,20,2013-05-09 10:35:00
5:56 AM,37.4,30.2,75,30.15,10.0,NNE,6.9,-,N/A,,Clear,20,2013-05-09 10:56:00
6:15 AM,37.4,30.2,75,30.16,10.0,NNE,8.1,-,N/A,,Clear,30,2013-05-09 11:15:00
6:35 AM,37.4,30.2,75,30.16,10.0,NNE,9.2,-,N/A,,Clear,30,2013-05-09 11:35:00
6:55 AM,39.2,30.2,70,30.17,10.0,NNE,9.2,-,N/A,,Clear,30,2013-05-09 11:55:00
7:15 AM,39.2,30.2,70,30.17,10.0,NNE,10.4,-,N/A,,Clear,30,2013-05-09 12:15:00
7:35 AM,39.2,32.0,75,30.17,10.0,NNE,10.4,-,N/A,,Clear,30,2013-05-09 12:35:00
7:56 AM,41.0,32.0,70,30.18,10.0,NNE,10.4,-,N/A,,Clear,30,2013-05-09 12:56:00
8:15 AM,42.8,32.0,66,30.18,10.0,NNE,13.8,18.4,N/A,,Clear,30,2013-05-09 13:15:00
8:35 AM,44.6,33.8,66,30.18,10.0,NNE,15.0,-,N/A,,Clear,30,2013-05-09 13:35:00
8:55 AM,44.6,33.8,66,30.18,10.0,NNE,15.0,21.9,N/A,,Clear,30,2013-05-09 13:55:00
9:15 AM,46.4,33.8,62,30.18,10.0,NNE,15.0,23.0,N/A,,Clear,30,2013-05-09 14:15:00
9:35 AM,46.4,33.8,62,30.18,10.0,NNE,11.5,23.0,N/A,,Clear,30,2013-05-09 14:35:00
9:55 AM,48.2,33.8,58,30.18,10.0,NNE,18.4,26.5,N/A,,Clear,30,2013-05-09 14:55:00
10:15 AM,50.0,32.0,50,30.18,10.0,NNE,19.6,26.5,N/A,,Clear,30,2013-05-09 15:15:00
10:35 AM,51.8,30.2,44,30.18,10.0,NE,20.7,28.8,N/A,,Clear,40,2013-05-09 15:35:00
10:55 AM,51.8,30.2,44,30.18,10.0,NE,20.7,26.5,N/A,,Clear,50,2013-05-09 15:55:00
11:15 AM,51.8,32.0,47,30.19,10.0,NNE,17.3,24.2,N/A,,Clear,30,2013-05-09 16:15:00
11:35 AM,53.6,33.8,47,30.19,10.0,NE,15.0,21.9,N/A,,Clear,40,2013-05-09 16:35:00
12:15 PM,53.6,33.8,47,30.19,10.0,NE,13.8,19.6,N/A,,Clear,40,2013-05-09 17:15:00
12:35 PM,55.4,33.8,44,30.19,10.0,NE,15.0,21.9,N/A,,Clear,40,2013-05-09 17:35:00
12:55 PM,55.4,33.8,44,30.19,10.0,NE,15.0,19.6,N/A,,Clear,50,2013-05-09 17:55:00
1:15 PM,57.2,33.8,41,30.19,10.0,NE,13.8,19.6,N/A,,Clear,40,2013-05-09 18:15:00
1:35 PM,57.2,33.8,41,30.18,10.0,NE,13.8,21.9,N/A,,Clear,50,2013-05-09 18:35:00
1:55 PM,57.2,33.8,41,30.17,10.0,NE,15.0,21.9,N/A,,Clear,50,2013-05-09 18:55:00
2:15 PM,57.2,33.8,41,30.17,10.0,ENE,13.8,20.7,N/A,,Clear,70,2013-05-09 19:15:00
2:35 PM,59.0,32.0,36,30.17,10.0,NE,13.8,20.7,N/A,,Clear,50,2013-05-09 19:35:00
2:55 PM,60.8,30.2,31,30.17,10.0,ENE,17.3,21.9,N/A,,Clear,60,2013-05-09 19:55:00
3:15 PM,60.8,30.2,31,30.16,10.0,NE,13.8,20.7,N/A,,Clear,50,2013-05-09 20:15:00
3:35 PM,60.8,30.2,31,30.16,10.0,NE,16.1,21.9,N/A,,Clear,50,2013-05-09 20:35:00
3:55 PM,60.8,30.2,31,30.16,10.0,NE,13.8,18.4,N/A,,Clear,50,2013-05-09 20:55:00
4:15 PM,60.8,28.4,29,30.15,10.0,NE,15.0,19.6,N/A,,Clear,50,2013-05-09 21:15:00
4:35 PM,62.6,28.4,27,30.15,10.0,NE,12.7,18.4,N/A,,Clear,50,2013-05-09 21:35:00
4:55 PM,62.6,26.6,26,30.15,10.0,NE,11.5,21.9,N/A,,Clear,50,2013-05-09 21:55:00
5:15 PM,62.6,26.6,26,30.15,10.0,NE,12.7,19.6,N/A,,Clear,40,2013-05-09 22:15:00
5:35 PM,62.6,26.6,26,30.14,10.0,NNE,15.0,21.9,N/A,,Clear,30,2013-05-09 22:35:00
5:55 PM,60.8,24.8,25,30.14,10.0,NE,11.5,19.6,N/A,,Clear,50,2013-05-09 22:55:00
6:15 PM,60.8,24.8,25,30.14,10.0,NE,15.0,20.7,N/A,,Clear,40,2013-05-09 23:15:00
6:35 PM,60.8,24.8,25,30.14,10.0,NE,12.7,20.7,N/A,,Clear,40,2013-05-09 23:35:00
6:55 PM,60.8,24.8,25,30.14,10.0,NE,13.8,19.6,N/A,,Clear,40,2013-05-09 23:55:00
7:15 PM,59.0,24.8,27,30.14,10.0,NE,12.7,18.4,N/A,,Clear,50,2013-05-10 00:15:00
7:35 PM,57.2,24.8,29,30.14,10.0,NE,12.7,18.4,N/A,,Clear,40,2013-05-10 00:35:00
7:55 PM,57.2,23.0,27,30.15,10.0,NE,10.4,19.6,N/A,,Clear,40,2013-05-10 00:55:00
8:15 PM,55.4,23.0,29,30.15,10.0,NE,9.2,-,N/A,,Clear,40,2013-05-10 01:15:00
8:35 PM,53.6,23.0,30,30.16,10.0,NE,6.9,-,N/A,,Clear,40,2013-05-10 01:35:00
8:55 PM,50.0,23.0,35,30.16,10.0,NE,6.9,-,N/A,,Clear,40,2013-05-10 01:55:00
9:15 PM,48.2,24.8,40,30.17,10.0,NE,8.1,-,N/A,,Clear,40,2013-05-10 02:15:00
9:35 PM,48.2,24.8,40,30.17,10.0,NE,6.9,-,N/A,,Clear,40,2013-05-10 02:35:00
9:55 PM,46.4,24.8,43,30.18,10.0,NE,6.9,-,N/A,,Clear,40,2013-05-10 02:55:00
10:15 PM,44.6,24.8,46,30.18,10.0,NE,4.6,-,N/A,,Clear,50,2013-05-10 03:15:00
10:55 PM,44.6,24.8,46,30.19,10.0,NE,5.8,-,N/A,,Clear,40,2013-05-10 03:55:00
11:15 PM,42.8,24.8,49,30.19,10.0,NE,4.6,-,N/A,,Clear,50,2013-05-10 04:15:00
11:35 PM,42.8,24.8,49,30.18,10.0,ENE,4.6,-,N/A,,Clear,70,2013-05-10 04:35:00